星链-30493 (STARLINK-30493 )

导读

STARLINK-30493是美国太空探索技术公司SpaceX星链互联网卫星星座中的一员,于2023年10月21日发射升空。星链星座旨在为全球提供低延迟、高速率的卫星互联网服务,该卫星入轨后,进一步拓展了星链星座的全球覆盖能力,推动全球互联网普及与太空网络基础设施建设。

基本信息
目录编号:
58116
目录名称:
STARLINK-30493
国际标识:
2023-161V
轨道中心:
EARTH
卫星名称:
星链-30493
卫星全名:
星链-30493 (STARLINK-30493 )
卫星状态:
在轨 (已飞行973 天)
发射日期:
2023-10-21 UTC
国别 :
美国 (US)
星等 :
--
轨道信息
数据来源 国际轨道数据
星历时间: 2026-06-19T06:57:49+0800
1天前
查看轨道信息
半长轴: 6853.421km
偏心率: 0.0001581
轨道倾角: 53.161°
近地点辐角 108.282°
升交点赤经 55.327°
平近点角 251.835°
近地点: 474.2km
远地点: 476.368km
周期: 94.107分钟
每日圈数: 15.30177
详细信息
固有亮度:
5
最大亮度:
0.3
卫星平台:
Starlink v2.0 mini
覆盖范围:
全球
运营商:
太空探索技术公司
运营商所在国:
美国
制造商(研发单位):
太空探索技术公司
制造商所在国:
美国
使用方式:
暂无
卫星简介
星链(Starlink)计划是由太空探索技术公司(SpaceX)提出的一个巨型低轨卫星互联网星座项目,计划在2019年至2024年间在太空搭建由约1.2万颗卫星组成的“星链”网络,其中1584颗将部署在地球上空550千米处的近地轨道,并从2020年开始工作。该卫星仍在工作。
2D轨道图
3D轨道图
轨道高度分析图
轨道倾角分析图
轨道综合分析图
查看轨道综合分析图